Weather History for Chattanooga, TN

Change the Weather History Date:

Friday, November 4, 2011

  Actual Average Record
Temperature  
Mean Temperature 51 °F 55 °F  
Max Temperature 61 °F 67 °F 81 °F (1909)
Min Temperature 41 °F 44 °F 22 °F (1966)
Degree Days  
Heating Degree Days 14 10  
Month to date heating degree days 58 38  
Since 1 July heating degree days 239 210  
Cooling Degree Days 0 0  
Month to date cooling degree days 0 0  
Year to date cooling degree days 2113 1737  
Growing Degree Days 1 (Base 50)    
Moisture  
Dew Point 42 °F    
Average Humidity 69    
Maximum Humidity 83    
Minimum Humidity 55    
Precipitation  
Precipitation 0.00 in 0.14 in 1.47 in (1977)
Month to date precipitation 0.52 0.55  
Year to date precipitation 50.64 43.13  
Snow  
Snow 0.00 in 0.00 in - ()
Month to date snowfall 0.0 0.0  
Since 1 July snowfall 0.0 0.0  
Since 1 September snowfall 0.0 0.0  
Snow Depth 0.00 in    
Sea Level Pressure  
Sea Level Pressure 30.05 in    
Wind  
Wind Speed 7 mph (NNW)    
Max Wind Speed 16 mph    
Max Gust Speed 20 mph    
Visibility 10 miles    
Events      
T = Trace of Precipitation, MM = Missing Value Source: NWS Daily Summary

Daily Weather History Graph

Daily Weather History Graph

Search for Another Location

Airport:

Trip Planner

Search our weather history database for the weather conditions in past years. The results will help you decide how hot, cold, wet, or windy it might be!

Date:

Astronomy

Nov. 04, 2011 Rise Set
Actual Time 8:04 AM EDT 6:43 PM EDT
Civil Twilight 7:38 AM EDT 7:10 PM EDT
Nautical Twilight 7:08 AM EDT 7:40 PM EDT
Astronomical Twilight 6:38 AM EDT 8:09 PM EDT
Moon 3:23 PM EDT (11/4) 2:28 AM EDT (11/4)
Length of Visible Light 11h 32m
Length of Day
10h 39m
Waxing Gibbous, 69% of the Moon is Illuminated
Nov 4
Waxing Gibbous
Nov 10
Full
Nov 18
Last Quarter
Nov 25
New
Dec 2
First Quarter

Hourly Weather History & Observations

Time (EDT) Temp. Windchill Dew Point Humidity Pressure Visibility Wind Dir Wind Speed Gust Speed Precip Events Conditions
12:53 AM 46.4 °F 42.9 °F 39.2 °F 76% 29.96 in 10.0 mi WNW 6.9 mph - N/A   Overcast
1:53 AM 45.0 °F 41.8 °F 39.0 °F 80% 29.94 in 10.0 mi WNW 5.8 mph - N/A   Mostly Cloudy
2:53 AM 46.0 °F 43.1 °F 39.0 °F 76% 29.96 in 10.0 mi WNW 5.8 mph - N/A   Overcast
3:53 AM 45.0 °F 42.6 °F 39.0 °F 80% 29.96 in 10.0 mi NNW 4.6 mph - N/A   Overcast
4:53 AM 46.0 °F 43.1 °F 39.9 °F 79% 29.97 in 10.0 mi NNW 5.8 mph - N/A   Overcast
5:53 AM 45.0 °F 42.6 °F 39.0 °F 80% 29.97 in 10.0 mi NW 4.6 mph - N/A   Mostly Cloudy
6:38 AM 42.8 °F 39.3 °F 37.4 °F 81% 29.98 in 10.0 mi NNW 5.8 mph - N/A   Scattered Clouds
6:53 AM 43.0 °F 38.8 °F 37.9 °F 82% 29.98 in 10.0 mi NNW 6.9 mph - N/A   Partly Cloudy
7:53 AM 43.0 °F 40.3 °F 37.9 °F 82% 30.02 in 10.0 mi NNW 4.6 mph - N/A   Mostly Cloudy
8:53 AM 45.0 °F 42.6 °F 39.0 °F 80% 30.06 in 10.0 mi NW 4.6 mph - N/A   Mostly Cloudy
9:53 AM 46.9 °F - 39.9 °F 77% 30.06 in 10.0 mi Calm Calm - N/A   Mostly Cloudy
10:05 AM 48.2 °F - 39.2 °F 71% 30.07 in 10.0 mi Calm Calm - N/A   Overcast
10:53 AM 50.0 °F - 42.1 °F 74% 30.08 in 10.0 mi North 10.4 mph - N/A   Mostly Cloudy
11:53 AM 52.0 °F - 42.1 °F 69% 30.09 in 10.0 mi North 11.5 mph - N/A   Mostly Cloudy
12:53 PM 55.0 °F - 44.1 °F 67% 30.08 in 10.0 mi North 9.2 mph - N/A   Mostly Cloudy
1:45 PM 57.2 °F - 44.6 °F 63% 30.06 in 10.0 mi NNE 11.5 mph - N/A   Scattered Clouds
1:53 PM 57.9 °F - 44.1 °F 60% 30.06 in 10.0 mi NNE 11.5 mph - N/A   Scattered Clouds
3:53 PM 59.0 °F - 44.1 °F 58% 30.06 in 10.0 mi NNW 11.5 mph - N/A   Scattered Clouds
4:53 PM 60.1 °F - 45.0 °F 57% 30.07 in 10.0 mi NNW 8.1 mph - N/A   Mostly Cloudy
5:53 PM 57.9 °F - 45.0 °F 62% 30.09 in 10.0 mi NNW 13.8 mph - N/A   Mostly Cloudy
6:53 PM 55.9 °F - 45.0 °F 67% 30.11 in 10.0 mi NNW 12.7 mph - N/A   Mostly Cloudy
7:53 PM 53.1 °F - 45.0 °F 74% 30.14 in 10.0 mi NNW 6.9 mph - N/A   Mostly Cloudy
8:53 PM 52.0 °F - 44.1 °F 74% 30.15 in 10.0 mi NNW 8.1 mph - N/A   Scattered Clouds
9:53 PM 50.0 °F - 44.1 °F 80% 30.15 in 9.0 mi North 6.9 mph - N/A   Partly Cloudy
10:53 PM 51.1 °F - 44.1 °F 77% 30.16 in 10.0 mi North 9.2 mph - N/A   Clear
11:53 PM 48.9 °F - 43.0 °F 80% 30.16 in 10.0 mi North 8.1 mph - N/A   Clear